Flag for Pakistan Weather past 2 weeks in Peshawar, Pakistan

Now
86 °F

Warm.


Feels Like: 93 °F
Forecast: 73 / 100 °F
Wind: N/A

Location: Peshawar Airport

Current Time: Sep 19, 2014 at 11:17:01 PM

Latest Report: Sep 19, 2014 at 11:00 PM


Visibility: N/A

Pressure: 29.62 "Hg

Humidity: 66%

Dew point: 73 °F

Location of PeshawarLocation

Historic Weather in Peshawar — Graph

°F

Peshawar temperature yesterday

Maximum temperature yesterday: 97 °F (at 3:00 PM)
Minimum temperature yesterday: 81 °F (at 3:00 AM)
Average temperature yesterday: 88 °F

Past Weeks' High & Low Weather Summary

 TemperatureHumidityPressure
High99 °F (Sep 8, 4:00 PM)83% (Sep 5, 4:00 AM)29.80 "Hg (Sep 5, 4:00 AM)
Low73 °F (Sep 5, 4:00 AM)39% (Sep 8, 4:00 PM)29.53 "Hg (Sep 5, 4:00 PM)
Average85 °F59%29.67 "Hg
* Reported Sep 4 10:00 PM — Sep 19 10:00 PM, Peshawar, Weather by CustomWeather, © 2014

Note: Actual official high and low records may vary slightly from our data, if they occured in-between our weather recording intervals... More about our weather records

Advertising

Peshawar weather history for previous 24 hours

 ConditionsComfort  
Time TempWeatherWind HumidityBarometerVisibility
10:00 PM
Sep 19
86 °FWarm.N/A55%29.62 "HgN/A
9:00 PM88 °FWarm.N/A52%29.62 "HgN/A
8:00 PM90 °FHot.N/A59%29.62 "HgN/A
7:00 PM91 °FHot.N/A56%29.62 "HgN/A
6:00 PM95 °FExtremely hot.N/A53%29.59 "HgN/A
5:00 PM97 °FExtremely hot.N/A50%29.59 "HgN/A
4:00 PM97 °FExtremely hot.N/A47%29.62 "HgN/A
3:00 PM97 °FExtremely hot.N/A47%29.65 "HgN/A
2:00 PM97 °FExtremely hot.N/A47%29.68 "HgN/A
1:00 PM95 °FExtremely hot.N/A53%29.71 "HgN/A
12:00 PM91 °FHot.N/A56%29.74 "HgN/A
11:00 AM88 °FWarm.N/A62%29.77 "HgN/A
10:00 AM88 °FWarm.N/A59%29.74 "HgN/A
9:00 AM86 °FWarm.N/A62%29.74 "HgN/A
7:00 AM82 °FWarm.N/A66%29.74 "HgN/A
6:00 AM81 °FWarm.N/A70%29.71 "HgN/A
4:59 AM81 °FWarm.N/A70%29.68 "HgN/A
4:00 AM82 °FWarm.N/A66%29.68 "HgN/A
3:00 AM82 °FWarm.N/A66%29.68 "HgN/A
2:00 AM84 °FWarm.N/A66%29.68 "HgN/A
1:00 AM84 °FWarm.N/A66%29.68 "HgN/A
12:00 AM84 °FWarm.N/A62%29.68 "HgN/A
11:00 PM
Sep 18
86 °FWarm.N/A59%29.68 "HgN/A
Weather by CustomWeather, © 2014

See weather overviewHow to use our weather pages